Regional Weather Roundup
Issued by NWS

Home | Current Version | Previous Version | Text Only | Print | Product List | Glossary Off
Versions: 1 2 3 4 5 6 7 8 9 10 11 12 13 14 15 16 17 18 19 20 21 22 23 24 25 26 27 28 29 30 31 32 33 34 35 36 37 38 39 40 41 42 43 44 45 46 47 48 49 50

156
ASUS43 KDMX 170506
RWRIA

WEATHER ROUNDUP FOR IOWA
NATIONAL WEATHER SERVICE DES MOINES IA
1100 PM CST SAT DEC 16 2017

NOTE: "FAIR" INDICATES FEW OR NO CLOUDS BELOW 12,000 FEET WITH NO
SIGNIFICANT WEATHER AND/OR OBSTRUCTIONS TO VISIBILITY.

* - THESE STATIONS ARE NOT NWS STATIONS...THUS NOT UNDER NWS
QUALITY CONTROL.  THEY ALSO DO NOT REPORT WEATHER SUCH
AS PRECIPITATION OR FOG.

IAZ001>003-012>014-020>022-031>034-043>046-170600-
   NORTHWEST IOWA

CITY           SKY/WX    TMP DP  RH WIND       PRES   REMARKS
CARROLL *      PTCLDY    28  25  86 N6        30.01S WCI  22
CHEROKEE *     PTCLDY    30  28  92 NE6       30.03S WCI  24
LE MARS *      PTCLDY    28  27  93 N7        30.04R WCI  21
ORANGE CITY *  PTCLDY    30  28  93 NE3       30.03R
SHELDON *      PTCLDY    25  25 100 NE6       30.02S WCI  18
SIOUX CITY     CLOUDY    33  28  81 NE9       30.02S WCI  25
SPENCER        PTCLDY    25  23  92 NE7       30.04R WCI  17
STORM LAKE *   CLEAR     30  27  86 NE14      30.00F WCI  20
$$

IAZ055>058-069>071-079>083-090>094-170600-
   SOUTHWEST IOWA

CITY           SKY/WX    TMP DP  RH WIND       PRES   REMARKS
ATLANTIC *     PTCLDY    32  27  80 NE7       29.98R WCI  26
AUDUBON *      PTCLDY    30  27  86 CALM      29.99S
CLARINDA *       N/A     30  23  74 N6        29.98R WCI  24
COUNCIL BLFS * CLOUDY    34  30  86 N12       29.97R WCI  25
CRESTON *      CLOUDY    34  25  69 NE6       29.98R WCI  29
HARLAN  *      CLOUDY    32  28  86 N9        30.02R WCI  24
LAMONI         CLOUDY    41  26  55 SE6       29.96S
RED OAK *      CLOUDY    30  25  80 CALM      29.97R
SHENANDOAH *   CLOUDY    32  25  74 NE6       29.97R WCI  26
$$

IAZ047>049-059>061-072>074-084-170600-
   CENTRAL IOWA

CITY           SKY/WX    TMP DP  RH WIND       PRES   REMARKS
AMES           CLOUDY    30  25  81 N6        29.99S WCI  24
ANKENY *       CLOUDY    30  25  80 N5        30.00R WCI  25
BOONE *        PTCLDY    30  27  86 N7        29.98S WCI  23
CHARITON *     CLOUDY    34  25  69 S6        29.97S WCI  29
DES MOINES     CLOUDY    35  26  69 NE6       29.98R WCI  30
GRINNELL*      PTCLDY    34  25  68 CALM      29.98S
KNOXVILLE *    CLOUDY    34  23  64 S5        29.97R WCI  30
MARSHALLTOWN   CLOUDY    30  24  78 NE8       29.98S WCI  22
NEWTON *       CLOUDY    32  23  69 NE7       29.98R WCI  26
PELLA *        CLOUDY    33  24  70 CALM      30.00R
PERRY *          N/A     30  24  79 N7        29.99S WCI  23
$$

IAZ004>006-015-016-023>025-035-036-170600-
   NORTH CENTRAL IOWA

CITY           SKY/WX    TMP DP  RH WIND       PRES   REMARKS
ALGONA *       CLOUDY    27  27 100 N12       30.02S FOG     WCI  16
CLARION *      PTCLDY    28  28 100 NE9       30.01S WCI  20
ESTHERVILLE    FOG       26  26 100 NE10      30.04S VSB 1   WCI  16
FORT DODGE *   CLOUDY    29  26  89 N8        30.02R WCI  21
MASON CITY     PTCLDY    24  22  91 NE6       30.04S WCI  17
FOREST CITY *    N/A     28  27  93 NE6       30.04R WCI  22
WEBSTER CITY * CLOUDY    27  23  86 N7        29.99R WCI  19
IOWA FALLS *     N/A     31  26  81 NE8       30.02R WCI  23
$$

IAZ007>011-017>019-026>030-037>042-050>054-066-170600-
   NORTHEAST IOWA

CITY           SKY/WX    TMP DP  RH WIND       PRES   REMARKS
CEDAR RAPIDS   CLOUDY    33  25  72 NE10      29.99S WCI  25
CHARLES CITY * MOCLDY    28  27  93 NE8       30.03S WCI  20
CLINTON *      CLOUDY    30  27  88 E14       30.02F WCI  19
DECORAH *      CLOUDY    28  27  93 E9        30.04S FOG     WCI  20
DUBUQUE        CLEAR     28  26  92 NE12      30.04S WCI  18
MONTICELLO *   CLOUDY    30  25  80 NE6       30.02F WCI  24
OELWEIN *      CLOUDY    28  28 100 E12       30.04R WCI  18
WATERLOO       CLOUDY    26  22  84 NE6       30.02R WCI  19
$$

IAZ064-065-067-068-078-170600-
   EAST CENTRAL IOWA

CITY           SKY/WX    TMP DP  RH WIND       PRES   REMARKS
DAVENPORT      CLOUDY    31  24  75 E8        30.03F WCI  23
IOWA CITY      CLOUDY    27  22  81 NE3       30.01S
MT. PLEASANT * CLOUDY    32  22  67 SE5       30.00R WCI  27
MUSCATINE *    CLOUDY    27  21  80 CALM      30.02R
QUAD CITIES    CLOUDY    25  21  85 E5        30.01S WCI  19
$$

IAZ062-063-075>077-085>089-095>099-170600-
   SOUTHEAST IOWA

CITY           SKY/WX    TMP DP  RH WIND       PRES   REMARKS
BURLINGTON     CLOUDY    36  27  69 CALM      30.00R
FAIRFIELD *    CLOUDY    32  23  69 SE5       29.99R WCI  27
FORT MADISON * CLOUDY    43  28  56 S3        30.01R
KEOKUK *       CLOUDY    39  27  60 CALM      30.00R
OSKALOOSA *      N/A     29  22  74 CALM      29.99R
OTTUMWA        CLOUDY    31  22  69 SE5       29.98R WCI  26
WASHINGTON *   CLOUDY    30  25  80 E7        30.01R WCI  23
$$

ABBREVIATIONS USED IN REMARKS
   TC - TEMPERATURES IN CELSIUS
  WCI - WIND CHILL INDEX
   HX - HEAT INDEX
  VSB - VISIBILITY
$$





USA.gov is the U.S. government's official web portal to all federal, state and local government web resources and services.